Log in Register

Login to your account

Username *
Password *
Remember Me

Create an account

Fields marked with an asterisk (*) are required.
Name *
Username *
Password *
Verify password *
Email *
Verify email *

Compte tenue de la situation sanitaire et des recommendations gouvernementales, l'aéroclub de Savoie n'est pas accessible aux personnes non adhérentes du club. 

Les vols découverte sont ainsi suspendus jusqu'à nouvel ordre, mais leur vente reste disponible sur notre boutique en ligne (Paypal uniquement), ou par commande mail ou téléphone.

Pour tout autre renseignement, merci de nous contacter par téléphone.

Le secrétariat est ouvert du mardi au vendredi de 13h30 à 17h, et le samedi de 9h à 12h30. Ces horaires sont suceptibles de varier ponctuellement en cette période de fêtes.

Merci

Nous contacter

 Téléphone : +33 (0)4 79 54 41 81

Coordonnées détaillées et accès : cliquez ici

 
LFLB °C
    Ferienhaus Ostsee
[source: ADDS]
METAR
LFLB 170400Z AUTO 20005KT 5000 -SN BR FEW007 BKN019 OVC042 00/00 Q1021 TEMPO 1000 SN BKN009 OVC020 =
TAF AMD LFLB 170313Z 1703/1803 18008KT 3000 -SN SCT012 BKN020 TEMPO 1703/1705 1000 SN BKN009 FM170500 VRB05KT 9999 BKN040 TEMPO 1705/1714 -RA BKN009 OVC020 TEMPO 1714/1724 34010KT
TAF
TAF AMD LFLB 170313Z 1703/1803 18008KT 3000 -SN SCT012 BKN020 TEMPO 1703/1705 1000 SN BKN009 FM170500 VRB05KT 9999 BKN040 TEMPO 1705/1714 -RA BKN009 OVC020 TEMPO 1714/1724 34010KT =
SR / SS: 07:11 / 16:21 UTC (Lever/Coucher du soleil le 2021-01-17)
JSN Boot template designed by JoomlaShine.com